Weather History for Randolph AFB, TX

Change the Weather History Date:

Friday, January 17, 2014

  Actual Average Record
Temperature  
Mean Temperature 52 °F -  
Max Temperature 65 °F 61 °F 80 °F (1999)
Min Temperature 37 °F 42 °F 28 °F (1997)
Degree Days  
Heating Degree Days 14    
Growing Degree Days 2 (Base 50)    
Moisture  
Dew Point 20 °F    
Average Humidity 34    
Maximum Humidity 72    
Minimum Humidity 14    
Precipitation  
Precipitation 0.00 in - - ()
Sea Level Pressure  
Sea Level Pressure 30.28 in    
Wind  
Wind Speed 8 mph (NNE)    
Max Wind Speed 16 mph    
Max Gust Speed 21 mph    
Visibility 10 miles    
Events      
Averages and records for this station are not official NWS values.
T = Trace of Precipitation, MM = Missing Value Source: NWS Daily Summary

Daily Weather History Graph

Daily Weather History Graph

Search for Another Location

Airport:

Trip Planner

Search our weather history database for the weather conditions in past years. The results will help you decide how hot, cold, wet, or windy it might be!

Date:

Astronomy

Jan. 17, 2014 Rise Set
Actual Time 7:28 AM CST 5:58 PM CST
Civil Twilight 7:02 AM CST 6:23 PM CST
Nautical Twilight 6:33 AM CST 6:53 PM CST
Astronomical Twilight 6:05 AM CST 7:21 PM CST
Moon 7:34 PM CST (1/17) 8:06 AM CST (1/17)
Length of Visible Light 11h 21m
Length of Day
10h 29m
Full, 98% of the Moon is Illuminated
Jan 17
Full
Jan 23
Last Quarter
Jan 30
New
Feb 6
First Quarter
Feb 14
Full

Hourly Weather History & Observations

Time (CST) Temp. Windchill Dew Point Humidity Pressure Visibility Wind Dir Wind Speed Gust Speed Precip Events Conditions
12:58 AM 51.3 °F - 30.0 °F 44% 30.20 in 10.0 mi NNE 8.1 mph - N/A   Clear
1:58 AM 47.1 °F - 30.0 °F 51% 30.21 in 10.0 mi NNW 3.5 mph - N/A   Clear
2:58 AM 43.2 °F 38.4 °F 30.7 °F 62% 30.22 in 10.0 mi NNW 8.1 mph - N/A   Clear
3:58 AM 40.5 °F 36.5 °F 30.7 °F 68% 30.23 in 10.0 mi NNW 5.8 mph - N/A   Clear
4:58 AM 38.3 °F 33.2 °F 29.8 °F 72% 30.24 in 10.0 mi North 6.9 mph - N/A   Clear
5:58 AM 48.7 °F - 21.0 °F 34% 30.26 in 10.0 mi NNE 8.1 mph - N/A   Clear
6:58 AM 48.2 °F - 16.2 °F 28% 30.28 in 10.0 mi North 11.5 mph - N/A   Clear
7:58 AM 43.7 °F 38.1 °F 18.3 °F 36% 30.30 in 10.0 mi North 10.4 mph - N/A   Clear
8:58 AM 50.4 °F - 18.1 °F 28% 30.34 in 10.0 mi North 9.2 mph - N/A   Clear
9:58 AM 56.3 °F - 14.9 °F 20% 30.35 in 10.0 mi North 16.1 mph - N/A   Clear
10:58 AM 60.1 °F - 14.0 °F 16% 30.35 in 10.0 mi NNE 13.8 mph - N/A   Clear
11:58 AM 62.1 °F - 14.2 °F 15% 30.33 in 10.0 mi NNE 12.7 mph 20.7 mph N/A   Clear
12:58 PM 63.9 °F - 14.7 °F 15% 30.30 in 10.0 mi NNE 11.5 mph - N/A   Clear
1:58 PM 64.2 °F - 13.3 °F 14% 30.27 in 10.0 mi NE 8.1 mph - N/A   Clear
2:58 PM 65.1 °F - 16.0 °F 15% 30.27 in 10.0 mi NE 8.1 mph - N/A   Clear
3:58 PM 63.9 °F - 15.6 °F 15% 30.26 in 10.0 mi ENE 11.5 mph - N/A   Clear
4:58 PM 61.3 °F - 15.3 °F 17% 30.27 in 10.0 mi East 9.2 mph - N/A   Clear
5:58 PM 55.0 °F - 18.3 °F 24% 30.28 in 10.0 mi East 4.6 mph - N/A   Clear
6:58 PM 50.9 °F - 18.1 °F 27% 30.29 in 10.0 mi ENE 5.8 mph - N/A   Clear
7:58 PM 47.8 °F - 18.7 °F 31% 30.29 in 10.0 mi ENE 3.5 mph - N/A   Clear
8:58 PM 45.9 °F 44.6 °F 20.5 °F 37% 30.30 in 10.0 mi ENE 3.5 mph - N/A   Clear
9:58 PM 45.7 °F - 19.8 °F 36% 30.29 in 10.0 mi NE 2.3 mph - N/A   Clear
10:58 PM 39.2 °F 35.9 °F 24.1 °F 55% 30.29 in 10.0 mi North 4.6 mph - N/A   Clear
11:58 PM 37.4 °F - 25.0 °F 61% 30.27 in 10.0 mi NNW 2.3 mph - N/A   Clear